STARLINK-5055 (54015 NORAD) Tracking and Keplerian Element Data

This shows tracking and keplerian element data for the satellite.

Feedback or suggestion? Click here.




ElementValue
Catalog54015
NameSTARLINK-5055
Epoch Orbit130
Epoch Day324.91667824
Epoch Year2022
RAAN224.1585
Inclination53.2151
Eccentricity0.0002623
Argument of Perigee20.4671
Mean Anonmoly190.3405
Mean Motion15.73183209
Decay Rate-4.048E-05
L11 54015U 22125BD 22324.91667824 -.00004048 00000+0 -24435-4 0 9992
L22 54015 53.2151 224.1585 0002623 20.4671 190.3405 15.73183209 1309



Live tracking and technical data element details for STARLINK-5055 (NORAD 54015). STARLINK-5055 can be tracked NOW for your location showing map with azimuth and elevation plus other details from your city location.







IsCatalogInMostPopularTable: catalog: 54015, numindb: 12
Update: records affected: 1



GetName: 54015 STARLINK-5055

Hit Count: updated at: Mon, 28 Nov 2022 21:54:36 GMT